STARLINK-36062

Last updated on Mon Dec 15 2025 00:02:11 GMT+0000 (Coordinated Universal Time)

1 66794U 25278D 25348.25003472 -.01204976 00000+0 -61103-2 0 9994 2 66794 42.9972 242.8301 0001946 278.5676 98.3107 15.83107092 3207
UTC large
Height (km)
Speed (km/s)
/
Latitude / Longitude
Inclination (degrees)
Orbital Period (minutes)
Azimuth
Elevation
Range (km)
Doppler Factor

Next 0 passes for location: London (51.5072 / 0.1276)

Sorry there are no passes over London.